Weather History for Storm Lake, IA

Change the Weather History Date:

Wednesday, April 24, 2013

  Actual Average Record
Temperature  
Mean Temperature 38 °F -  
Max Temperature 51 °F 62 °F 87 °F (2012)
Min Temperature 24 °F 41 °F 24 °F (2013)
Degree Days  
Heating Degree Days 28    
Moisture  
Dew Point 28 °F    
Average Humidity 74    
Maximum Humidity 100    
Minimum Humidity 38    
Precipitation  
Precipitation 0.00 in - - ()
Sea Level Pressure  
Sea Level Pressure 30.07 in    
Wind  
Wind Speed 13 mph (West)    
Max Wind Speed 30 mph    
Max Gust Speed 39 mph    
Visibility 10 miles    
Events Rain    
Averages and records for this station are not official NWS values.
T = Trace of Precipitation, MM = Missing Value Source: NWS Daily Summary

Daily Weather History Graph

Daily Weather History Graph

Search for Another Location

Airport:

Trip Planner

Search our weather history database for the weather conditions in past years. The results will help you decide how hot, cold, wet, or windy it might be!

Date:

Astronomy

Apr. 24, 2013 Rise Set
Actual Time 6:25 AM CDT 8:13 PM CDT
Civil Twilight 5:55 AM CDT 8:43 PM CDT
Nautical Twilight 5:18 AM CDT 9:20 PM CDT
Astronomical Twilight 4:39 AM CDT 10:00 PM CDT
Moon 7:17 PM CDT (4/24) 5:31 AM CDT (4/24)
Length of Visible Light 14h 48m
Length of Day
13h 48m
Waxing Gibbous, 98% of the Moon is Illuminated
Apr 24
Waxing Gibbous
Apr 25
Full
May 2
Last Quarter
May 9
New
May 17
First Quarter

Hourly Weather History & Observations

Time (CDT) Temp. Windchill Dew Point Humidity Pressure Visibility Wind Dir Wind Speed Gust Speed Precip Events Conditions
12:15 AM 26.6 °F 18.2 °F 24.8 °F 93% 30.12 in 10.0 mi WNW 8.1 mph - N/A   Clear
12:35 AM 26.6 °F 17.5 °F 23.0 °F 86% 30.12 in 10.0 mi West 9.2 mph - N/A   Clear
12:55 AM 26.6 °F 18.2 °F 23.0 °F 86% 30.12 in 10.0 mi West 8.1 mph - N/A   Clear
1:15 AM 26.6 °F 18.2 °F 23.0 °F 86% 30.13 in 10.0 mi WSW 8.1 mph - N/A   Clear
1:35 AM 24.8 °F 16.1 °F 23.0 °F 93% 30.13 in 10.0 mi WSW 8.1 mph - N/A   Clear
1:55 AM 26.6 °F 17.5 °F 23.0 °F 86% 30.12 in 10.0 mi WSW 9.2 mph - N/A   Clear
2:15 AM 26.6 °F 16.8 °F 23.0 °F 86% 30.12 in 10.0 mi West 10.4 mph - N/A   Clear
2:35 AM 26.6 °F 16.2 °F 23.0 °F 86% 30.11 in 10.0 mi West 11.5 mph - N/A   Clear
2:55 AM 26.6 °F 17.5 °F 23.0 °F 86% 30.10 in 10.0 mi West 9.2 mph - N/A   Clear
3:15 AM 26.6 °F 16.8 °F 23.0 °F 86% 30.10 in 10.0 mi West 10.4 mph - N/A   Clear
3:35 AM 26.6 °F 17.5 °F 23.0 °F 86% 30.10 in 10.0 mi West 9.2 mph - N/A   Clear
3:55 AM 26.6 °F 17.5 °F 23.0 °F 86% 30.09 in 10.0 mi WSW 9.2 mph - N/A   Clear
4:15 AM 24.8 °F 15.3 °F 23.0 °F 93% 30.09 in 10.0 mi West 9.2 mph - N/A   Clear
4:35 AM 26.6 °F 16.2 °F 23.0 °F 86% 30.09 in 10.0 mi West 11.5 mph - N/A   Clear
5:15 AM 26.6 °F 16.2 °F 23.0 °F 86% 30.09 in 10.0 mi West 11.5 mph - N/A   Clear
5:35 AM 24.8 °F 14.0 °F 23.0 °F 93% 30.09 in 10.0 mi West 11.5 mph - N/A   Clear
5:55 AM 24.8 °F 14.6 °F 23.0 °F 93% 30.09 in 10.0 mi West 10.4 mph - N/A   Clear
6:15 AM 24.8 °F 14.0 °F 23.0 °F 93% 30.09 in 10.0 mi West 11.5 mph - N/A   Clear
6:35 AM 24.8 °F 14.6 °F 23.0 °F 93% 30.09 in 10.0 mi West 10.4 mph - N/A   Clear
6:55 AM 26.6 °F 15.7 °F 23.0 °F 86% 30.09 in 10.0 mi West 12.7 mph - N/A   Clear
7:15 AM 26.6 °F 16.2 °F 23.0 °F 86% 30.09 in 10.0 mi West 11.5 mph - N/A   Clear
7:35 AM 26.6 °F 16.2 °F 24.8 °F 93% 30.09 in 10.0 mi West 11.5 mph - N/A   Clear
7:55 AM 28.4 °F 18.0 °F 24.8 °F 86% 30.10 in 10.0 mi West 12.7 mph - N/A   Clear
8:15 AM 30.2 °F 20.8 °F 24.8 °F 80% 30.10 in 10.0 mi West 11.5 mph - N/A   Clear
8:35 AM 32.0 °F 22.1 °F 26.6 °F 80% 30.10 in 10.0 mi West 13.8 mph - N/A   Clear
8:55 AM 32.0 °F 23.0 °F 26.6 °F 80% 30.10 in 10.0 mi West 11.5 mph - N/A   Clear
9:15 AM 33.8 °F 25.8 °F 26.6 °F 75% 30.10 in 10.0 mi West 10.4 mph 16.1 mph N/A   Clear
9:35 AM 35.6 °F 27.5 °F 26.6 °F 70% 30.09 in 10.0 mi WSW 11.5 mph - N/A   Clear
9:55 AM 37.4 °F 29.3 °F 26.6 °F 65% 30.09 in 10.0 mi WSW 12.7 mph - N/A   Clear
10:15 AM 37.4 °F 29.3 °F 28.4 °F 70% 30.08 in 10.0 mi WSW 12.7 mph - N/A   Clear
10:35 AM 39.2 °F 32.0 °F 26.6 °F 61% 30.08 in 10.0 mi WSW 11.5 mph - N/A   Clear
10:55 AM 39.2 °F 30.2 °F 28.4 °F 65% 30.08 in 10.0 mi SW 17.3 mph - N/A   Clear
11:15 AM 41.0 °F 32.8 °F 28.4 °F 61% 30.07 in 10.0 mi SW 16.1 mph 23.0 mph N/A   Clear
11:35 AM 41.0 °F 32.5 °F 28.4 °F 61% 30.08 in 10.0 mi SW 17.3 mph 23.0 mph N/A   Clear
11:55 AM 42.8 °F 34.3 °F 24.8 °F 49% 30.07 in 10.0 mi SW 19.6 mph 25.3 mph N/A   Clear
12:15 PM 42.8 °F 34.5 °F 26.6 °F 53% 30.07 in 10.0 mi SW 18.4 mph - N/A   Clear
12:35 PM 44.6 °F 36.4 °F 24.8 °F 46% 30.06 in 10.0 mi SW 20.7 mph - N/A   Clear
12:55 PM 44.6 °F 36.9 °F 28.4 °F 53% 30.05 in 10.0 mi SW 18.4 mph 26.5 mph N/A   Clear
1:15 PM 46.4 °F 38.1 °F 30.2 °F 53% 30.03 in 10.0 mi SSW 24.2 mph - N/A   Clear
1:35 PM 46.4 °F 39.0 °F 30.2 °F 53% 30.03 in 10.0 mi WSW 19.6 mph 29.9 mph N/A   Clear
1:55 PM 46.4 °F 37.9 °F 30.2 °F 53% 30.02 in 10.0 mi SW 25.3 mph - N/A   Clear
2:15 PM 48.2 °F - 30.2 °F 50% 30.01 in 10.0 mi WSW 25.3 mph 32.2 mph N/A   Clear
2:35 PM 50.0 °F - 30.2 °F 47% 30.01 in 10.0 mi WSW 21.9 mph 29.9 mph N/A   Clear
2:55 PM 51.8 °F - 30.2 °F 44% 30.00 in 10.0 mi WSW 24.2 mph - N/A   Clear
3:15 PM 51.8 °F - 30.2 °F 44% 30.00 in 10.0 mi WSW 24.2 mph 34.5 mph N/A   Partly Cloudy
3:35 PM 51.8 °F - 32.0 °F 47% 29.99 in 10.0 mi WSW 25.3 mph 32.2 mph N/A   Scattered Clouds
3:55 PM 51.8 °F - 30.2 °F 44% 29.98 in 10.0 mi WSW 27.6 mph - N/A   Mostly Cloudy
4:15 PM 51.8 °F - 28.4 °F 41% 29.97 in 10.0 mi WSW 24.2 mph - N/A   Mostly Cloudy
4:35 PM 51.8 °F - 28.4 °F 41% 29.96 in 10.0 mi WSW 23.0 mph 33.4 mph N/A   Mostly Cloudy
4:55 PM 51.8 °F - 26.6 °F 38% 29.96 in 10.0 mi WSW 23.0 mph 33.4 mph N/A   Scattered Clouds
5:15 PM 50.0 °F - 30.2 °F 47% 29.98 in 10.0 mi WNW 29.9 mph 39.1 mph N/A   Mostly Cloudy
5:35 PM 42.8 °F 33.1 °F 37.4 °F 81% 30.01 in 4.0 mi West 25.3 mph 34.5 mph N/A Rain Light Rain
5:55 PM 44.6 °F 37.2 °F 39.2 °F 81% 30.00 in 10.0 mi West 17.3 mph - N/A Rain Light Rain
6:15 PM 44.6 °F 37.4 °F 39.2 °F 81% 30.01 in 10.0 mi WNW 16.1 mph - N/A   Scattered Clouds
6:35 PM 44.6 °F 36.9 °F 39.2 °F 81% 30.01 in 10.0 mi NW 18.4 mph 27.6 mph N/A   Mostly Cloudy
7:15 PM 44.6 °F 36.9 °F 35.6 °F 71% 30.02 in 10.0 mi WNW 18.4 mph 26.5 mph N/A   Clear
7:35 PM 42.8 °F 35.4 °F 33.8 °F 70% 30.02 in 10.0 mi NW 15.0 mph 20.7 mph N/A   Partly Cloudy
7:55 PM 42.8 °F 36.6 °F 35.6 °F 76% 30.03 in 10.0 mi NW 11.5 mph - N/A   Mostly Cloudy
8:15 PM 41.0 °F 33.9 °F 35.6 °F 81% 30.04 in 10.0 mi WNW 12.7 mph - N/A   Mostly Cloudy
8:35 PM 39.2 °F 30.8 °F 33.8 °F 81% 30.05 in 10.0 mi WNW 15.0 mph - N/A   Scattered Clouds
8:55 PM 39.2 °F 30.5 °F 33.8 °F 81% 30.05 in 10.0 mi WNW 16.1 mph - N/A   Partly Cloudy
10:15 PM 35.6 °F 26.2 °F 32.0 °F 87% 30.10 in 10.0 mi WNW 15.0 mph - N/A   Partly Cloudy
10:35 PM 33.8 °F 24.3 °F 32.0 °F 93% 30.10 in 10.0 mi WNW 13.8 mph - N/A   Clear
10:55 PM 33.8 °F 25.3 °F 32.0 °F 93% 30.11 in 10.0 mi WNW 11.5 mph - N/A   Clear
11:15 PM 33.8 °F 25.8 °F 32.0 °F 93% 30.12 in 10.0 mi West 10.4 mph - N/A   Clear
11:35 PM 33.8 °F 25.3 °F 32.0 °F 93% 30.12 in 10.0 mi WNW 11.5 mph - N/A   Clear
11:55 PM 32.0 °F 23.6 °F 32.0 °F 100% 30.12 in 10.0 mi West 10.4 mph - N/A   Clear